Погода в Растилкове Малом

Россия / Ивановская область     56°37′07″N   40°59′21″E
темп.,
°C
ветер,
м/с
пор.,
м/с
влажн.,
%
обл.,
%
осадки,
мм/ч
давл.,
гПа
погр.,
м
24 сентября, пт
пт2400:00+9юв3897100 0.1 1010344
03:00+8юв3797100 0.4 1009309
06:00+8ююв3895100 0.1 1008324
09:00+9ююв498796 0.1 1008503
12:00+11ю4873100 0.3 1008959
15:00+12ю595857 0.3 10081530
18:00+10ююв37775 0.1 1008273
21:00+7юв379265 0.1 1009136
25 сентября, сб
сб2500:00+8юв3887100 0.0 1009234
03:00+8вюв2585100 0.0 1009144
06:00+8юв2589100 0.0 1009165
09:00+11ю35698 0.0 1009323
12:00+14ююз4650100 0.0 10091064
15:00+13ю2561100 0.0 1009689
18:00+10ююв227277 0.0 100912
21:00+10ююв2573100 0.0 1009127
26 сентября, вс
вс2600:00+9ю2681100 0.0 1008159
03:00+9ююв2581100 0.0 1007152
06:00+9юв2481100 0.0 1007146
09:00+10вюв1380100 0.1 1007140
12:00+10в2479100 0.4 1008479
15:00+10св358198 0.6 1010385
18:00+9с368996 0.1 1012175
21:00+9ссв498989 0.3 1013429
27 сентября, пн
пн2700:00+6с389424 0.0 1015166
03:00+7ссз41089100 0.0 1017288
06:00+8с41087100 0.0 1018493
09:00+8с5989100 0.1 1019639
12:00+8с4991100 0.2 1020661
15:00+9с4888100 0.3 1022615
18:00+8ссв4890100 0.1 1023552
21:00+8ссв4992100 0.1 1025613
28 сентября, вт
вт2800:00+8ссв4892100 0.0 1026540
03:00+7ссв3692100 0.0 1028356
06:00+5с259893 0.0 1029119
09:00+7ссв3687100 0.0 1030544
12:00+9ссв3471100 0.0 1030826
15:00+9ссв457098 0.0 1030880
18:00+9с4771100 0.0 1031530
21:00+8ссв3881100 0.0 1031503